Location: Poughquag
(41.6090°N, 73.6820°W)
Time: 03:30:34
(UTC-04:00)

Vanguard 1 - Pass Details

Date: 02 June 2020
Orbit: 650 x 3833 km, 34.2° (Epoch: 06 July)

Event Time Altitude Azimuth Distance (km) Brightness Sun altitude
Rises 04:08:52 0° 207° (SSW) 5,158 - -11.7°
Exits shadow 04:11:28 - 200° (SSW) 4,663 13.0 -11.3°
Reaches altitude 10° 04:12:09 10° 198° (SSW) 4,548 12.9 -11.2°
Maximum altitude 04:24:08 36° 138° (SE) 4,009 13.2 -9.6°
Drops below altitude 10° 04:42:06 10° 82° (E) 6,806 15.4 -7.0°
Sets 04:48:26 0° 76° (ENE) 7,966 16.2 -6.1°
